User: anonymous   Login
Location: Curicchi
(45.0167°N, 12.0500°E)
Time: 10:05:45
(UTC+00:00)
Language:

N. Korean satellite - Orbit

View from above orbital plane
View from above orbital plane
View from above satellite
View from above satellite

Ground track
Ground track

The orbit data is extracted from the following two-line orbital elements,

1 39026U 12072A   21265.70677378  .00004850  00000-0  16242-3 0  9998
2 39026  97.2513 256.2711 0036362  40.0898 320.3016 15.30769779487909
Epoch (UTC): 22 September 2021 16:57:45
Eccentricity: 0.0036362
inclination: 97.2513°
perigee height: 448 km
apogee height: 498 km
right ascension of ascending node: 256.2711°
argument of perigee: 40.0898°
revolutions per day: 15.30769779
mean anomaly at epoch: 320.3016°
orbit number at epoch: 48790

The dashed part of the orbit path shows where the satellite is in the earth's shadow,  

DLR